Cloud_Cover
88 80 80 76 80 88 88 76 88 92 88 92 92 92 92 92 88 88 92 92 76 68 88 92 88 80 92 64 64 68 92 88 92 88 80 56 48 56 64 68 64 48 56 68 68 68 64 64 64 64 44 44 44 36 12 8 8 8 8 0 0 0 0 0 8 12 8 0 0 0 0 0 0 0 0 0 0 0 0 0 12 32 32 24 32 24
88 92 92 88 88 88 76 88 92 92 92 92 88 88 92 92 92 92 92 92 88 80 92 92 92 92 92 68 64 76 92 92 88 76 56 48 48 56 68 56 48 44 48 48 56 64 64 56 48 44 36 32 24 20 12 12 8 8 8 8 8 12 8 8 8 0 0 0 0 0 0 0 0 0 0 0 0 0 0 0 8 8 8 0 0 0
92 92 92 88 88 88 80 92 92 92 92 88 76 68 92 92 92 92 92 92 92 92 92 92 92 88 80 68 68 76 88 88 80 76 64 56 44 36 44 48 44 36 36 36 44 48 56 56 48 44 32 24 20 12 12 8 8 8 8 12 8 8 8 8 0 0 0 0 0 0 0 0 0 0 0 0 0 0 0 0 0 0 0 0 0 0
92 92 88 92 92 92 92 92 92 92 92 88 80 80 92 92 92 92 92 92 92 92 92 80 76 68 44 56 64 76 88 76 68 68 76 44 24 24 36 48 48 36 36 36 44 48 48 48 48 44 32 24 20 12 8 8 8 8 8 8 0 0 0 0 0 0 0 0 0 0 0 0 0 0 0 0 0 0 0 0 0 0 0 0 0 0
92 92 92 92 92 92 92 92 92 92 92 92 92 92 92 92 92 92 88 88 88 80 68 48 36 24 20 44 76 88 80 48 36 44 56 56 36 32 44 56 56 56 48 48 48 48 48 56 56 44 20 12 8 8 0 0 0 0 0 0 0 0 0 0 0 0 0 0 0 0 0 0 0 0 0 0 0 0 0 0 0 0 0 0 0 0
92 92 92 92 92 92 92 92 92 92 92 92 92 92 92 92 92 88 76 64 56 44 20 32 32 20 8 24 44 56 44 12 12 20 24 32 36 44 44 68 64 48 56 56 64 64 64 64 64 48 24 8 0 0 0 0 0 0 8 8 8 0 8 0 0 0 0 0 0 0 0 0 0 0 0 0 0 0 0 0 0 0 0 0 0 0
92 92 92 92 92 92 92 92 92 92 92 92 92 92 92 88 80 76 76 48 32 12 0 8 8 8 0 0 8 8 8 0 0 0 8 8 12 24 36 32 36 44 56 48 48 64 64 44 36 36 24 8 0 0 8 8 8 12 8 8 8 8 8 8 8 0 0 0 8 0 0 0 0 0 0 0 0 0 0 0 0 0 0 0 0 0
92 92 92 92 92 92 92 92 92 92 92 88 88 80 88 76 64 48 64 44 32 12 0 0 0 0 0 0 0 0 0 0 0 0 8 0 0 0 12 8 8 20 36 20 12 20 24 8 8 8 8 8 8 12 20 12 12 12 12 8 8 8 8 0 8 8 8 8 8 8 8 8 8 8 0 0 0 0 0 0 0 0 0 0 0 0
92 92 92 92 92 92 92 92 92 92 92 88 80 68 68 56 36 24 24 20 12 8 0 0 0 0 0 0 0 0 0 0 0 0 0 0 0 0 0 0 0 0 8 0 0 0 0 0 0 0 0 12 12 20 24 20 20 12 12 12 8 8 8 8 8 8 8 8 8 8 8 8 8 8 8 0 0 0 0 0 0 0 0 0 0 0
92 92 88 88 80 76 80 76 76 76 88 80 76 68 44 24 12 0 8 0 0 0 0 0 0 0 0 0 0 0 0 0 0 0 0 0 0 0 0 0 0 0 0 0 0 0 0 0 0 8 8 12 20 20 24 24 20 20 12 12 12 8 8 8 8 8 8 8 8 8 8 8 8 8 8 0 0 0 0 0 0 0 0 0 0 0
88 88 88 88 88 76 64 56 56 56 68 68 56 44 20 8 0 0 0 0 0 0 0 0 0 0 0 0 0 0 0 0 0 0 0 0 0 0 0 0 0 0 0 0 0 0 0 0 8 8 12 12 20 20 24 20 20 20 12 12 12 8 8 8 8 8 8 8 8 8 8 8 8 0 0 0 0 0 0 0 0 0 0 0 0 8
88 88 92 88 88 88 80 76 64 48 64 76 44 12 0 0 0 0 0 0 0 0 0 0 0 0 0 0 0 0 0 0 0 0 0 0 0 0 0 0 0 0 0 0 8 0 0 8 8 12 12 12 12 20 24 20 20 12 12 12 8 8 8 8 8 8 8 8 8 8 8 8 0 0 0 0 0 0 0 0 0 0 0 0 0 8
80 88 76 76 80 88 88 76 48 32 44 44 24 0 0 0 0 0 0 0 0 0 0 0 0 0 0 0 0 0 0 0 0 0 0 0 0 0 0 0 0 0 0 0 0 0 0 8 12 12 12 12 20 20 24 20 20 12 8 8 8 8 0 0 0 8 0 8 0 0 0 0 0 0 0 0 0 0 0 0 0 0 0 0 12 24
68 76 80 80 80 76 48 36 24 20 24 12 8 0 0 0 0 0 0 0 0 0 0 0 0 0 0 0 0 0 0 0 0 0 0 0 0 0 0 0 0 0 0 0 0 0 0 0 0 8 24 20 20 24 24 20 12 8 8 0 0 0 0 0 0 0 0 0 0 0 0 0 0 0 0 0 0 0 0 0 0 0 12 8 12 32
56 44 48 64 76 64 20 12 12 8 8 0 0 0 0 0 0 0 0 0 0 0 0 0 0 0 0 0 0 0 0 0 0 0 0 0 0 0 0 0 0 0 0 0 0 0 0 0 0 0 0 0 8 12 20 12 12 8 0 0 0 0 0 0 0 0 0 0 20 24 0 0 0 0 0 0 0 0 0 8 8 20 48 56 56 68
36 24 24 36 36 24 8 8 8 8 8 0 0 0 0 0 0 0 0 0 0 0 0 0 0 0 0 0 0 0 0 0 0 0 0 0 0 0 0 0 0 0 0 0 0 0 0 0 0 0 0 0 8 12 12 8 8 0 0 0 0 0 0 0 0 0 0 0 32 48 48 44 44 36 32 24 12 8 0 20 32 44 88 88 88 88
32 32 24 20 20 12 12 12 12 8 0 0 0 0 0 0 0 0 0 0 0 0 0 0 0 0 0 0 0 0 0 0 0 0 0 0 0 0 0 0 0 0 0 0 0 0 0 0 0 0 0 8 0 0 8 0 0 0 0 0 0 0 0 0 0 0 0 24 44 64 88 88 88 76 56 32 24 12 0 44 76 76 44 64 80 88
32 32 12 12 12 12 12 8 8 0 0 0 0 0 0 0 0 0 0 0 0 0 0 0 0 0 0 0 0 0 0 0 0 0 0 0 0 0 0 0 0 0 0 0 0 0 0 0 0 0 0 0 0 0 8 0 0 0 0 0 0 0 0 0 0 0 0 32 48 68 88 88 88 88 88 56 64 76 64 80 88 88 88 76 80 88
32 24 32 20 20 12 0 0 0 0 0 0 0 0 0 0 0 0 0 0 0 0 0 0 0 0 0 0 0 0 0 0 0 0 0 0 0 0 0 0 0 0 0 0 0 0 0 0 0 0 0 0 0 0 0 0 0 0 0 0 0 0 8 8 8 0 0 0 12 32 64 80 88 88 88 88 88 88 88 88 88 76 44 56 68 88
32 24 24 24 20 12 8 0 0 0 0 0 0 0 0 0 0 0 0 0 0 0 0 0 0 0 0 0 0 0 0 0 0 0 0 0 0 0 0 0 0 0 0 0 0 0 0 0 0 0 0 0 0 0 0 0 0 0 0 0 0 0 0 8 8 8 0 0 0 12 48 76 88 88 88 88 88 88 88 88 88 88 88 88 88 88
32 32 32 20 12 8 0 0 0 0 0 0 0 0 0 0 0 0 0 0 0 0 0 0 0 0 0 0 0 0 0 0 0 0 0 0 0 0 0 0 0 0 0 0 0 0 0 0 0 0 0 0 0 0 0 0 0 0 0 0 0 0 0 0 0 0 0 0 0 0 0 8 8 24 88 88 88 88 88 88 88 88 88 88 88 88
24 24 20 8 8 0 0 0 0 0 0 0 0 0 0 0 0 0 0 0 0 0 0 0 0 0 0 0 0 0 0 0 0 0 0 0 0 0 0 0 0 0 0 0 0 0 0 0 0 0 0 0 0 0 0 0 0 0 0 0 0 0 0 0 0 0 0 0 0 0 0 0 8 20 36 76 88 88 88 88 88 88 88 88 88 88
24 20 12 8 0 0 0 0 0 0 0 0 0 0 0 0 0 0 0 0 0 0 0 0 0 0 0 0 0 0 0 0 0 0 0 0 0 0 0 0 0 0 0 0 0 0 0 0 0 0 0 0 0 0 0 0 0 0 0 0 0 0 0 0 0 0 0 0 0 0 0 0 20 48 88 88 88 88 88 88 88 88 88 88 88 88
12 12 8 8 0 0 0 0 0 0 0 0 0 0 0 0 0 0 0 0 0 0 0 0 0 0 0 0 0 0 0 0 0 0 0 0 0 0 0 0 0 0 0 0 0 0 0 0 0 0 0 0 0 0 0 0 0 0 0 0 0 0 0 0 0 8 20 20 12 12 20 8 8 32 88 88 88 88 88 88 88 88 88 88 88 88
12 12 8 0 0 0 0 0 0 0 0 0 0 0 0 0 0 0 0 0 0 0 0 0 0 0 0 0 0 0 0 0 0 0 0 0 0 0 0 0 0 0 0 0 0 0 0 0 0 0 0 0 0 0 0 0 0 0 0 0 0 0 0 24 24 20 32 32 32 24 24 12 24 36 64 68 68 68 68 76 76 68 76 64 64 68
12 8 8 0 0 0 0 0 0 0 0 0 0 0 0 0 0 0 0 0 0 0 0 0 0 0 0 0 0 0 0 0 0 0 0 0 0 0 0 0 0 0 0 0 0 0 0 0 0 0 0 0 0 8 0 0 0 0 0 0 0 0 0 20 24 24 8 8 12 20 0 8 12 12 0 8 8 0 8 32 20 8 20 8 0 8
12 8 8 0 0 0 0 0 0 0 0 0 0 0 0 0 0 0 0 0 0 0 0 0 0 0 0 0 0 0 0 0 0 0 0 0 0 0 0 0 0 0 0 0 0 0 0 0 0 0 0 0 8 12 0 0 0 0 0 0 0 0 0 0 0 0 0 0 0 0 0 0 0 0 0 0 0 0 0 0 0 0 0 0 0 0
8 8 8 8 8 0 0 0 0 0 0 0 0 0 0 0 0 0 0 0 0 0 0 0 0 0 0 0 0 0 0 0 0 0 0 0 0 0 0 0 0 0 0 0 0 0 0 0 0 0 0 0 0 8 8 0 0 0 0 0 0 0 0 0 0 0 0 0 0 0 0 0 0 0 0 0 0 0 0 0 0 0 0 0 0 0
8 8 8 8 0 0 0 0 0 0 0 0 0 0 0 0 0 0 0 0 0 0 0 0 0 0 0 0 0 0 0 0 0 0 0 0 0 0 0 0 0 0 0 0 0 0 0 0 0 0 0 0 0 0 8 8 0 0 0 0 0 0 0 0 0 0 0 0 0 0 0 0 0 0 0 0 0 0 0 0 0 0 0 0 0 0
8 8 8 8 0 0 0 0 0 0 0 0 0 0 0 0 0 0 0 0 0 0 0 0 0 0 0 0 0 0 0 0 0 0 0 0 0 0 0 0 0 0 0 0 0 0 0 0 0 0 0 0 0 0 0 0 0 0 0 0 0 0 0 0 0 0 0 0 0 0 0 0 0 0 0 0 0 0 0 0 8 8 0 0 0 0
12 8 8 8 0 0 0 0 0 0 0 0 0 0 0 0 0 0 0 0 0 0 0 0 0 0 0 0 0 0 0 0 0 0 0 0 0 0 0 0 0 0 0 0 0 0 0 0 0 0 0 0 0 0 0 0 0 0 0 0 0 0 0 0 0 0 0 0 0 0 0 0 0 0 0 0 0 0 0 0 8 8 0 0 0 0
8 8 8 8 0 0 0 0 0 0 0 0 0 0 0 0 0 0 0 0 0 0 0 0 0 0 0 0 0 0 0 0 0 0 0 0 0 0 0 0 0 0 8 0 0 0 0 0 0 0 0 0 0 0 0 0 0 0 0 0 0 0 8 0 0 0 0 0 0 0 0 0 0 0 0 0 0 0 0 0 0 0 0 0 0 0
8 8 8 8 0 0 0 0 0 0 0 0 0 0 0 0 0 0 0 0 0 0 0 0 0 0 0 0 0 0 0 0 0 0 0 0 0 0 0 0 0 8 24 12 0 0 0 0 0 0 0 0 0 0 0 0 0 0 0 0 0 0 0 0 0 0 0 0 0 0 0 0 0 0 0 0 0 0 0 0 0 0 0 0 0 0
8 8 0 0 0 0 0 0 0 0 0 0 0 0 0 0 0 0 0 0 0 0 0 0 0 0 0 0 0 0 0 0 0 0 0 0 0 0 0 0 0 0 12 8 0 8 20 0 0 0 0 0 0 0 0 0 0 0 0 0 0 0 0 0 0 0 0 0 0 0 0 0 0 0 0 0 0 0 0 0 0 0 0 0 0 0
8 8 0 0 0 0 0 0 0 0 0 0 0 0 0 0 0 0 0 0 0 0 0 0 0 0 0 0 0 0 8 0 0 0 0 0 0 0 0 0 0 0 0 0 0 0 8 0 12 20 0 0 0 8 0 0 0 0 0 0 0 0 0 0 0 0 0 0 0 0 0 0 0 0 0 0 0 0 0 0 0 0 0 0 0 0
0 8 8 0 0 8 8 0 0 0 0 0 0 0 0 0 0 0 0 0 0 0 0 0 0 8 12 12 8 8 12 8 8 12 8 8 12 12 8 8 8 8 8 8 8 8 8 0 20 32 0 0 8 0 0 0 0 0 0 0 0 0 0 0 0 0 0 0 0 0 0 0 0 0 0 0 0 0 0 0 0 0 0 0 0 0
0 0 0 0 0 8 8 0 0 0 0 0 0 0 0 0 0 0 0 0 0 0 0 8 12 12 20 20 20 20 20 20 20 20 20 20 20 20 20 12 8 8 12 12 12 12 12 12 12 12 8 8 0 0 0 0 0 0 0 0 0 0 0 0 0 0 0 0 0 0 0 0 0 0 0 0 0 0 0 0 0 0 0 0 0 0
0 0 0 0 0 0 0 0 0 0 0 0 0 0 0 0 0 0 0 0 0 8 0 0 8 20 24 24 24 24 24 24 24 24 32 24 24 24 24 24 32 32 12 20 20 20 20 20 12 12 8 0 0 0 0 0 0 0 0 0 0 0 0 0 0 0 0 0 0 0 0 8 8 8 8 0 0 0 0 0 0 0 0 0 0 0
0 0 0 0 0 0 0 0 0 0 0 0 0 0 0 20 12 0 0 8 12 12 12 8 12 20 24 24 24 32 32 32 32 32 32 32 32 24 24 24 32 32 12 20 20 20 20 20 20 12 12 8 8 0 0 0 0 0 0 0 0 0 0 0 0 0 0 8 8 8 8 8 8 8 8 0 0 0 0 0 0 0 0 0 0 0
0 0 0 0 0 0 0 0 0 0 0 0 8 8 0 12 8 8 20 24 32 32 32 20 12 12 12 12 20 24 24 24 32 32 32 32 24 24 24 24 24 24 32 24 20 20 20 12 12 12 12 8 8 8 0 0 0 0 0 0 0 0 0 0 8 8 8 8 8 8 8 8 8 0 0 0 0 0 0 0 0 0 0 0 0 0
0 0 0 0 0 0 0 0 0 0 0 0 0 0 0 0 0 0 0 0 0 0 8 20 20 12 12 8 8 8 8 12 20 24 20 24 24 24 24 20 20 20 20 24 20 20 20 20 20 12 8 8 8 8 0 0 0 0 0 0 0 8 8 8 8 8 8 0 0 0 8 0 0 0 0 0 0 0 0 0 0 0 0 0 0 0
8 8 0 0 0 0 0 0 0 0 0 0 0 0 0 0 0 0 8 8 0 0 0 0 8 12 8 8 8 8 8 8 8 0 0 8 12 20 20 20 20 20 24 24 20 20 12 12 12 20 20 12 12 12 20 8 0 0 0 0 0 8 8 8 0 0 0 0 0 0 0 0 0 0 0 0 0 0 0 0 0 0 0 0 0 0
8 8 0 0 0 8 20 24 12 0 0 0 0 0 0 0 0 0 0 8 0 0 0 0 0 0 8 8 8 0 8 8 8 0 0 0 0 0 12 32 32 32 32 32 32 24 12 12 12 12 12 12 8 8 8 0 0 0 0 0 0 8 8 8 0 0 0 0 0 0 0 0 0 0 0 0 0 0 0 0 0 0 0 0 0 0
8 8 0 0 8 12 24 24 12 8 0 0 0 0 0 0 0 0 0 0 0 0 0 0 0 0 0 8 8 0 8 8 0 0 0 0 0 8 20 32 36 36 32 36 32 24 24 20 12 8 0 0 0 0 0 0 0 0 0 0 0 8 8 8 0 0 0 0 0 0 0 0 0 0 0 0 0 0 0 0 0 0 0 0 0 0
8 8 8 12 20 12 12 8 0 0 0 0 0 0 0 0 0 0 0 0 0 0 0 0 0 0 0 0 0 0 8 8 0 0 0 8 12 20 36 36 36 32 32 32 24 24 24 20 8 0 0 0 0 0 0 0 0 0 0 0 0 0 8 8 0 0 0 0 0 0 0 0 0 0 0 0 0 0 0 0 0 0 0 0 0 0
8 8 8 20 20 12 12 8 0 0 0 0 0 0 0 0 0 0 0 0 0 0 0 0 0 0 0 0 0 0 0 0 0 0 0 0 8 20 36 32 32 24 32 32 24 24 20 12 8 8 0 0 0 0 0 0 0 0 0 0 8 8 8 8 0 0 0 0 0 0 0 0 0 0 0 0 0 0 0 0 0 0 0 0 0 0
12 12 12 20 20 20 12 8 8 8 0 0 0 0 0 0 0 0 0 0 0 0 0 8 8 12 8 8 0 0 8 8 8 8 8 8 20 32 32 24 24 24 24 24 24 20 12 8 8 8 8 12 32 36 0 0 0 0 0 0 8 8 8 8 0 0 0 0 0 0 0 0 0 0 0 0 0 0 0 0 0 0 0 0 0 0
12 12 12 24 24 24 20 12 12 8 8 0 0 0 0 0 0 0 0 0 8 12 12 12 20 20 12 12 12 12 20 12 12 8 8 0 24 44 44 44 36 32 32 32 32 32 32 20 20 24 24 44 64 48 8 0 0 0 0 8 8 8 8 0 0 0 0 0 0 0 0 0 0 0 0 0 0 0 0 0 0 0 0 0 0 0
20 24 32 32 32 32 24 12 12 12 8 0 0 0 0 0 0 0 0 0 8 12 20 20 24 24 24 24 20 20 24 20 20 12 8 0 20 36 36 56 64 68 76 68 68 76 76 48 64 80 80 76 76 56 20 8 0 8 8 8 8 0 0 0 0 0 0 0 0 0 0 0 0 0 0 0 0 0 0 0 0 0 0 0 0 0
32 36 36 32 32 32 24 20 20 12 8 0 0 0 0 8 0 0 0 8 8 12 20 20 24 32 32 32 32 24 24 20 20 12 12 8 12 32 36 56 64 64 68 68 76 76 76 76 68 64 64 76 64 48 56 32 24 32 36 12 8 0 0 0 0 0 0 0 0 0 0 0 0 0 0 0 0 0 0 0 0 0 0 0 0 0
36 36 36 32 32 32 24 24 24 20 20 12 8 8 20 20 20 8 0 8 8 8 8 20 32 36 36 36 32 24 24 20 20 20 12 12 24 36 36 48 64 64 68 68 68 68 68 64 44 20 20 44 24 8 44 48 48 48 56 12 0 0 0 0 0 0 0 0 0 0 0 0 0 0 12 8 8 12 24 8 0 0 0 0 8 8